Location: Brompton
(51.4000°N, 0.5333°E)
Time: 11:51:21
(UTC+00:00)

Cosmos 1898 Rocket - Pass Details

Date: 28 September 2021
Orbit: 752 x 784 km, 74.0° (Epoch: 17 October)

Event Time Altitude Azimuth Distance (km) Brightness Sun altitude
Rises 04:45:22 0° 338° (NNW) 3,267 6.6 -11.4°
Reaches altitude 10° 04:47:54 10° 345° (NNW) 2,340 6.0 -11.1°
Maximum altitude 04:52:54 40° 55° (NE) 1,139 5.0 -10.3°
Drops below altitude 10° 04:57:55 10° 125° (SE) 2,339 6.7 -9.5°
Sets 05:00:26 0° 133° (SE) 3,265 7.4 -9.1°
